sat.trackr.live / text

‹ back to catalog

STARLINK-2474

NORAD 48132 · 2021-027AS

PAYLOAD ACTIVE UNKNOWN

§ Identity

Operator
Country
US
Launch date
2021-04-07
Launch site
AFETR
Launch vehicle
Mass (kg)
RCS (m²)

Purposes: comms

External: N2YO · Heavens-Above · Gunter

§ Orbital elements

Epoch: 2026-09-11T15:52:19.723296Z

Period
94.01 min
Inclination
53.1625°
Eccentricity
0.0001203
Mean motion
15.31705217 rev/d
Perigee alt
469.9 km
Apogee alt
471.5 km
Semi-major
6,848.9 km
B*
-3.5780e-5
RAAN
22.3185°
Arg perigee
80.1130°
Mean anomaly
280.0007°
Rev number
30,096

§ Raw data

STARLINK-24741 48132U 21027AS  26254.66133939 -.00001475  00000+0 -35780-4 0  99942 48132  53.1625  22.3185 0001203  80.1130 280.0007 15.31705217300969

JSON: /api/v1/satellites/48132 · /tle

For live sub-satellite position, see the globe view (requires WebGL).

§ Visibility from observer

Set your observer location to see the next 7 days of passes ≥ 10°. The values pass through the URL so the page stays shareable.

No JS? Fill the form by hand. The geolocation button needs JavaScript.